Dewpoint
63 63 62 62 61 56 52 51 47 42 40 39 37 39 39 39 37 36 35 36 35 35 34 34 34 33 33 32 33 33 33 34 35 35 36 37 38 38
64 63 62 61 60 56 53 52 51 49 44 40 38 38 39 37 37 36 35 34 34 34 34 33 32 31 31 30 30 30 32 31 31 33 34 35 36 37
63 63 62 60 59 57 54 53 51 48 43 38 37 39 38 35 36 36 36 34 33 34 33 32 31 30 30 30 30 29 29 29 29 30 31 33 33 34
63 62 61 59 59 58 55 53 50 45 42 38 36 36 35 35 35 35 34 33 32 33 33 32 31 30 30 30 29 29 29 28 29 28 28 28 29 31
63 61 60 58 58 57 54 51 47 42 40 37 36 35 33 32 32 33 33 33 32 33 33 32 31 30 30 29 29 28 28 28 28 28 27 27 27 27
61 60 60 57 56 54 51 46 42 40 39 38 35 33 31 31 30 30 32 32 32 32 31 31 28 29 30 29 27 26 27 28 28 27 27 26 26 27
59 59 57 56 53 52 48 43 40 39 38 36 34 32 31 30 30 31 32 31 31 33 31 30 28 27 28 27 24 24 26 27 27 25 25 26 26 26
55 54 51 50 48 46 46 43 42 39 37 35 33 32 32 31 31 31 32 31 28 32 31 30 30 29 29 27 25 24 23 24 24 23 22 23 24 24
52 49 48 47 46 45 42 41 41 40 38 37 34 35 32 31 30 31 32 31 30 31 32 28 31 29 30 30 25 24 21 21 21 21 22 20 20 22
51 49 48 45 45 42 40 39 38 37 36 33 35 35 32 31 30 30 33 31 30 30 32 28 30 29 29 29 24 23 22 20 21 20 19 20 19 19
50 49 48 45 43 41 40 37 35 32 32 34 34 32 31 31 31 32 30 29 27 28 29 29 28 28 30 31 28 21 21 20 20 20 17 19 18 15
47 48 47 45 39 39 39 36 34 31 30 30 30 30 30 30 29 30 30 29 28 27 29 28 27 28 27 30 28 25 23 21 18 19 16 17 18 12
44 42 42 39 38 38 38 37 34 30 29 29 29 30 29 29 29 31 32 29 27 27 29 29 28 27 28 27 27 25 24 23 21 19 15 14 16 18
42 40 38 37 37 36 36 32 30 29 28 28 28 27 28 28 28 29 30 29 27 27 28 28 27 27 26 25 25 25 24 24 22 20 18 14 14 16
38 37 36 36 34 32 30 30 29 29 27 26 26 27 28 28 27 27 27 27 27 28 28 28 24 24 23 21 23 23 22 24 22 18 14 14 13 14
35 35 34 34 34 32 31 30 29 28 27 27 27 28 29 28 28 26 25 25 25 25 25 25 23 22 23 23 21 23 21 19 17 12 10 15 12 12
33 33 33 32 32 31 30 30 30 29 28 28 28 28 28 28 27 27 25 24 23 23 23 23 23 23 23 23 22 21 20 13 10 13 9 12 13 12
33 32 33 33 32 31 31 30 30 30 30 31 30 29 28 28 27 27 25 23 23 22 22 23 22 22 22 22 20 21 19 13 17 14 11 11 11 12
34 33 33 33 33 32 31 30 30 31 32 31 30 29 28 28 28 27 27 26 25 22 22 23 22 21 21 21 24 17 15 15 16 16 15 13 11 11
35 34 34 33 32 32 31 31 31 31 31 31 31 30 29 29 28 28 27 27 26 26 25 23 23 22 21 22 20 23 17 19 18 17 16 16 16 15
35 35 34 33 32 32 32 32 31 31 31 32 31 30 30 29 29 29 29 28 28 26 25 25 26 25 23 21 21 21 22 19 20 19 19 18 17 15
35 35 34 34 33 32 32 32 32 31 31 32 32 31 31 30 29 29 29 29 28 27 26 27 23 22 20 20 19 20 21 23 21 21 21 20 19 16
35 35 34 34 33 33 32 32 31 31 31 32 32 32 32 31 31 30 30 29 28 27 26 23 22 22 21 20 20 19 19 18 20 20 20 20 21 22
Wind_Speed
25 25 23 19 16 15 17 23 14 12 14 12 9 12 11 12 13 10 12 14 14 12 12 12 13 13 13 14 14 15 16 17 17 17 19 20 22 24
22 24 24 18 19 18 20 20 15 12 11 8 14 17 15 12 13 11 13 14 13 13 12 11 11 12 12 11 12 13 15 16 17 18 18 19 20 23
24 25 25 21 19 19 18 18 16 11 14 6 13 17 17 15 15 12 13 11 12 12 11 11 10 9 10 11 12 13 14 16 19 18 17 18 21 23
27 25 26 20 24 21 20 22 19 13 9 17 19 20 16 16 16 15 13 10 11 12 10 10 8 7 9 10 11 12 14 16 17 15 17 18 20 22
26 26 26 24 24 22 21 20 19 15 16 18 16 18 18 17 17 13 14 12 10 13 10 8 7 7 7 9 11 13 13 14 14 15 17 18 21 22
24 26 25 27 26 25 20 21 19 14 15 19 18 20 18 20 17 19 16 12 12 11 7 5 5 7 6 6 10 11 12 12 14 15 16 17 20 21
20 22 21 23 26 29 29 23 26 18 16 17 18 19 16 21 22 17 17 15 10 9 11 7 5 4 4 6 8 10 11 12 14 16 16 16 18 19
21 17 15 19 22 25 24 27 34 31 25 16 13 21 21 21 19 20 19 18 8 10 11 7 5 5 3 5 7 8 10 10 12 13 15 15 15 16
22 22 20 18 23 20 24 26 25 31 34 28 26 22 22 25 23 21 20 17 8 15 14 9 7 7 3 1 4 7 9 10 11 13 14 15 13 13
23 25 25 27 25 27 25 22 20 16 17 14 22 22 14 25 25 19 22 12 11 11 10 7 8 7 6 4 4 6 8 9 11 12 13 13 11 9
22 24 27 29 31 31 27 25 18 12 9 15 19 20 25 28 25 24 21 20 9 9 10 6 8 9 8 4 2 5 6 8 9 11 12 12 10 6
18 18 24 28 39 37 32 31 27 20 20 21 21 22 25 23 24 18 24 20 11 8 11 9 14 10 5 6 4 1 1 4 4 9 10 11 14 6
20 18 17 28 38 38 33 33 30 24 24 24 21 19 18 17 14 12 14 13 12 4 13 9 11 10 3 5 5 4 2 2 2 3 5 10 11 15
23 18 20 34 32 26 22 30 32 22 20 21 21 17 16 14 10 11 11 7 3 5 21 9 8 10 7 6 5 5 3 2 3 3 4 4 3 4
18 19 29 29 30 26 35 36 31 25 22 19 18 17 15 15 11 11 12 12 13 13 13 7 10 11 8 6 5 5 3 5 3 3 2 4 5 6
28 29 29 26 21 22 28 26 18 19 24 25 20 18 16 17 15 12 14 14 15 11 7 8 10 9 7 5 5 5 4 2 2 2 2 1 2 4
27 25 26 25 25 24 22 19 20 20 21 23 25 21 21 20 18 15 15 16 10 15 12 8 8 5 4 6 5 5 5 4 3 2 2 2 1 1
24 25 24 25 27 26 25 23 22 24 21 22 21 23 23 22 21 17 16 16 15 15 13 12 11 8 3 3 4 6 6 5 5 4 2 2 2 1
19 24 25 26 25 26 26 27 24 22 21 20 21 23 23 20 22 19 17 15 13 14 12 12 13 9 8 6 4 6 7 6 4 4 2 2 1 3
20 24 24 24 24 25 26 25 24 23 23 21 21 23 22 23 22 20 18 17 16 14 14 13 13 12 9 4 3 4 8 6 6 4 3 1 3 4
17 19 21 23 24 24 23 23 25 25 24 23 21 22 22 22 21 20 19 20 16 15 16 15 13 8 7 7 3 3 6 10 6 4 2 3 4 3
19 22 22 22 23 23 23 23 23 24 24 23 23 23 22 21 21 21 20 20 18 14 12 9 9 10 8 9 7 4 4 4 8 10 10 9 4 3
17 19 21 23 24 25 25 25 25 24 24 23 22 22 23 22 19 19 18 17 16 14 13 11 12 9 10 9 6 6 5 5 4 5 7 13 17 16
Wind_Direction
208 205 205 200 190 182 169 171 157 175 191 183 176 185 166 154 152 137 125 115 109 103 92 84 77 67 56 43 33 25 20 15 11 11 13 10 9 7
208 205 205 195 187 178 174 182 179 159 166 153 196 178 170 161 152 142 129 127 116 108 99 91 82 68 54 43 36 29 23 13 13 14 11 13 10 12
205 203 202 193 191 184 175 179 183 164 148 143 161 171 168 161 155 152 151 137 128 120 112 99 90 73 58 44 35 30 28 19 19 15 14 14 13 14
208 203 202 190 195 187 186 179 176 171 141 158 158 163 171 165 160 159 153 154 144 137 128 113 98 82 57 50 39 34 27 27 21 18 21 21 20 20
207 203 201 192 194 184 179 177 170 161 145 155 150 165 158 162 156 157 158 160 153 141 129 121 109 87 62 47 42 35 32 30 23 24 26 26 24 22
205 204 199 196 190 175 171 166 149 145 131 144 142 162 161 168 166 160 162 166 158 166 149 107 126 94 65 59 48 43 39 35 33 32 32 31 28 25
200 201 193 194 184 172 161 159 144 142 137 153 139 158 161 168 175 169 165 160 158 175 171 164 154 129 72 70 60 45 44 36 36 36 36 34 30 27
186 182 169 161 164 163 161 158 156 154 163 158 169 173 174 174 166 162 162 159 174 195 166 161 172 143 106 70 51 45 40 36 33 36 37 37 31 29
174 164 156 158 156 157 159 162 167 163 165 171 172 184 171 174 157 162 169 171 168 159 162 163 186 157 132 80 58 52 46 38 32 33 33 33 28 26
175 171 168 164 165 156 157 153 159 150 174 170 180 174 169 162 160 164 156 131 121 154 179 160 182 168 168 164 58 53 50 42 30 29 33 29 23 21
177 176 172 173 166 159 156 151 144 138 121 144 140 148 148 152 145 141 151 156 156 173 190 155 173 169 189 183 113 48 52 41 30 26 32 29 13 359
174 178 180 174 159 159 161 155 160 160 142 124 117 120 137 144 154 165 158 169 142 162 189 166 166 169 177 196 189 148 83 43 23 30 32 32 16 4
169 167 166 162 163 165 165 167 165 149 140 129 130 134 137 143 152 157 161 168 162 136 170 161 171 175 181 150 193 198 146 15 335 4 44 44 36 21
173 165 162 162 162 155 148 133 130 134 131 130 134 139 142 143 146 158 148 139 122 156 162 170 157 163 162 159 182 190 199 213 322 345 2 23 82 68
148 150 145 147 139 128 131 132 135 139 137 137 140 143 138 121 123 127 117 118 108 122 149 155 139 148 174 162 163 170 181 203 258 306 334 23 25 12
124 130 136 138 137 132 133 138 143 149 150 145 149 135 129 135 151 155 144 153 137 131 128 144 134 147 151 156 171 175 188 196 232 305 314 321 22 22
129 132 139 143 144 145 149 147 144 145 152 148 148 149 155 161 163 167 164 166 167 163 158 140 134 143 133 176 188 201 194 197 217 257 237 221 146 22
140 154 162 164 162 161 163 161 162 163 165 158 155 158 166 171 165 173 170 175 169 168 161 158 156 150 155 194 248 206 195 198 210 214 220 232 198 170
154 165 169 173 168 168 167 169 170 170 159 164 167 165 168 172 170 170 170 172 174 169 167 170 175 180 187 205 155 234 216 198 207 218 228 216 261 212
168 170 173 173 171 170 170 169 166 163 168 171 173 167 170 173 174 174 175 175 175 171 177 186 189 193 202 209 190 187 226 200 217 215 216 230 261 300
175 174 176 173 175 174 174 171 171 170 171 169 172 169 173 176 179 178 178 177 178 180 192 195 194 167 142 119 165 197 210 228 245 233 202 267 281 264
182 179 178 178 176 174 173 173 172 172 174 174 174 172 176 182 179 177 178 177 184 182 196 171 150 158 168 193 218 200 205 202 228 241 242 251 264 277
194 187 179 177 175 174 174 176 179 177 178 176 175 174 174 182 180 178 176 177 177 171 175 166 163 176 189 195 195 207 207 208 227 245 253 232 239 252